This demonstration page uses our WeatherBlox Daily Observations layout. Learn more.

Left ArrowRight Arrow

34.74481, -87.66753

Hourly Observations for June 19, 2020

Temp ( °F °C ) Dew Point ( °F °C ) Humidity (%) Winds ( mph kmh ) Pressure ( in mb ) Visibility ( mi km ) Precip ( " mm )
12:53 am 00:53 Clear 69 20.6 64 17.8 84 84 Calm 30.04 1017 10 16 0.00 0.00
1:53 am 01:53 Clear 67 19.4 63 17.2 87 87 Calm 30.04 1017 10 16 0.00 0.00
2:53 am 02:53 Clear 67 19.4 63 17.2 87 87 Calm 30.04 1017 10 16 0.00 0.00
3:53 am 03:53 Clear 66 18.9 63 17.2 90 90 Calm 30.04 1017 8 13 0.00 0.00
4:53 am 04:53 Clear 66 18.9 62 16.7 87 87 Calm 30.05 1018 8 13 0.00 0.00
5:53 am 05:53 Sunny 65 18.3 62 16.7 90 90 Calm 30.06 1018 7 11 0.00 0.00
6:53 am 06:53 Sunny 69 20.6 64 17.8 84 84 Calm 30.08 1019 10 16 0.00 0.00
7:40 am 07:40 Mostly Sunny 73 22.8 66 18.9 79 79 Calm 30.09 1019 10 16 0.00 0.00
7:53 am 07:53 Sunny 74 23.3 66 18.9 76 76 Calm 30.10 1019 10 16 0.00 0.00
8:53 am 08:53 Sunny 79 26.1 66 18.9 65 65 WSW 6 9 30.10 1019 10 16 0.00 0.00
9:53 am 09:53 Sunny 82 27.8 66 18.9 58 58 VRB 3 6 30.09 1019 10 16 0.00 0.00
10:53 am 10:53 Mostly Cloudy 85 29.4 64 17.8 50 50 W 7 11 30.09 1019 10 16 0.00 0.00
11:53 am 11:53 Mostly Cloudy 83 28.3 65 18.3 55 55 SW 6 9 30.08 1019 10 16 0.00 0.00
12:53 pm 12:53 Mostly Cloudy 87 30.6 64 17.8 46 46 VRB 3 6 30.06 1018 10 16 0.00 0.00
1:53 pm 13:53 Mostly Cloudy 89 31.7 61 16.1 39 39 VRB 5 7 30.04 1017 10 16 0.00 0.00
2:53 pm 14:53 Cloudy 85 29.4 65 18.3 51 51 Calm 30.04 1017 10 16 0.00 0.00
3:53 pm 15:53 Partly Cloudy 90 32.2 62 16.7 39 39 NE 6 9 30.03 1017 10 16 0.00 0.00
4:53 pm 16:53 Mostly Cloudy 87 30.6 65 18.3 48 48 Calm 30.02 1017 10 16 0.00 0.00
5:53 pm 17:53 Mostly Cloudy 87 30.6 65 18.3 48 48 E 3 6 30.01 1016 10 16 0.00 0.00
6:53 pm 18:53 Sunny 88 31.1 63 17.2 43 43 Calm 30.01 1016 8 13 0.00 0.00
7:53 pm 19:53 Sunny 82 27.8 66 18.9 58 58 E 3 6 30.02 1017 10 16 0.00 0.00
8:53 pm 20:53 Clear 77 25 67 19.4 71 71 E 3 6 30.03 1017 10 16 0.00 0.00
9:53 pm 21:53 Clear 75 23.9 68 20 79 79 Calm 30.04 1017 10 16 0.00 0.00
10:53 pm 22:53 Clear 73 22.8 67 19.4 81 81 Calm 30.05 1018 10 16 0.00 0.00
11:53 pm 23:53 Clear 72 22.2 67 19.4 84 84 Calm 30.04 1017 10 16 0.00 0.00

Powered by AerisWeather